SCP
0 0 0 0 0 0 0 0 0 0 0 0 0 0 0 0 0 0 0 0 0 0 0 0 0 0 0 0 0 0 0 0 0 0 0 0 0 0 0 0 0 0 0 0 0 0 0 0 0
0 0 0 0 0 0 0 0 0 0 0 0 0 0 0 0 0 0 0 0 0 0 0 0 0 0 0 0 0 0 0 0 0 0 0 0 0 0 0 0 0 0 0 0 0 0 0 0 0
0 0 0 0 0 0 0 0 0 0 0 0 0 0 0 0 0 0 0 0 0 0 0 0 0 0 0 0 0 0 0 0 0 0 0 0 0 0 0 0 0 0 0 0 0 0 0 0 0
0 0 0 0 0 0 0 0 0 0 0 0 0 0 0 0 0 0 0 0 0 0 0 0 0 0 0 0 0 0 0 0 0 0 0 0 0 0 0 0 0 0 0 0 0 0 0 0 0
0 0 0 0 0 0 0 0 0 0 0 0 0 0 0 0 0 0 0 0 0 0 0 0 0 0 0 0 0 0 0 0 0 0 0 0 0 0 0 0 0 0 0 0 0 0 0 0 0
0 0 0 0 0 0 0 0 0 0 0 0 0 0 0 0 0 0 0 0 0 0 0 0 0 0 0 0 0 0 0 0 0 0 0 0 0 0 0 0 0 0 0 0 0 0 0 0 0
0 0 0 0 0 0 0 0 0 0 0 0 0 0 0 0 0 0 0 0 0 0 0 0 0 0 0 0 0 0 0 0 0 0 0 0 0 0 0 0 0 0 0 0 0 0 0 0 0
0 0 0 0 0 0 0 0 0 0 0 0 0 0 0 0 0 0 0 0 0 0 0 0 0 0 0 0 0 0 0 0 0 0 0 0 0 0 0 0 0 0 0 0 0 0 0 0 0
0 0 0 0 0 0 0 0 0 0 0 0 0 0 0 0 0 0 0 0 0 0 0 0 0 0 0 0 0 0 0 0 0 0 0 0 0 0 0 0 0 0 0 0 0 0 0 0 0
0 0 0 0 0 0 0 0 0 0 0 0 0 0 0 0 0 0 0 0 0 0 0 0 0 0 0 0 0 0 0 0 0 0 0 0 0 0 0 0 0 0 0 0 0 0 0 0 0
0 0 0 0 0 0 0 0 0 0 0 0 0 0 0 0 0 0 0 0 0 0 0 0 0 0 0 0 0 0 0 0 0 0 0 0 0 0 0 0 0 0 0 0 0 0 0 0 0
0 0 0 0 0 0 0 0 0 0 0 0 0 0 0 0 0 0 0 0 0 0 0 0 0 0 0 0 0 0 0 0 0 0 0 0 0 0 0 0 0 0 0 0 0 0 0 0 0
0 0 0 0 0 0 0 0 0 0 0 0 0 0 0 0 0 0 0 0 0 0 0 0 0 0 0 0 0 0 0 0 0 0 0 0 0 0 0 0 0 0 0 0 0 0 0 0 0
0 0 0 0 0 0 0 0 0 0 0 0 0 0 0 0 0 0 0 0 0 0 0 0 0 0 0 0 0 0 0 0 0 0 0 0 0 0 0 0 0 0 0 0 0 0 0 0 0
0 0 0 0 0 0 0 0 0 0 0 0 0 0 0 0 0 0 0 0 0 0 0 0 0 0 0 0 0 0 0 0 0 0 0 0 0 0 0 0 0 0 0 0 0 0 0 0 0
0 0 0 0 0 0 0 0 0 0 0 0 0 0 0 0 0 0 0 0 0 0 0 0 0 0 0 0 0 0 0 0 0 0 0 0 0 0 0 0 0 0 0 0 0 0 0 0 0
0 0 0 0 0 0 0 0 0 0 0 0 0 0 0 0 0 0 0 0 0 0 0 0 0 0 0 0 0 0 0 0 0 0 0 0 0 0 0 0 0 0 0 0 0 0 0 0 0
0 0 0 0 0 0 0 0 0 0 0 0 0 0 0 0 0 0 0 0 0 0 0 0 0 0 0 0 0 0 0 0 0 0 0 0 0 0 0 0 0 0 0 0 0 0 0 0 0
0 0 0 0 0 0 0 0 0 0 0 0 0 0 0 0 0 0 0 0 0 0 0 0 0 0 0 0 0 0 0 0 0 0 0 0 0 0 0 0 0 0 0 0 0 0 0 0 0
0 0 0 0 0 0 0 0 0 0 0 0 0 0 0 0 0 0 0 0 0 0 0 0 0 0 0 0 0 0 0 0 0 0 0 0 0 0 0 0 0 0 0 0 0 0 0 0 0
0 0 0 0 0 0 0 0 0 0 0 0 0 0 0 0 0 0 0 0 0 0 0 0 0 0 0 0 0 0 0 0 0 0 0 0 0 0 0 0 0 0 0 0 0 0 0 0 0
0 0 0 0 0 0 0 0 0 0 0 0 0 0 0 0 0 0 0 0 0 0 0 0 0 0 0 0 0 0 0 0 0 0 0 0 0 0 0 0 0 0 0 0 0 0 0 0 0
0 0 0 0 0 0 0 0 0 0 0 0 0 0 0 0 0 0 0 0 0 0 0 0 0 0 0 0 0 0 0 0 0 0 0 0 0 0 0 0 0 0 0 0 0 0 0 0 0
0 0 0 0 -0 0 0 0 0 0 0 0 0 0 0 0 0 0 0 0 0 0 0 0 0 0 0 0 0 0 0 0 0 0 0 0 0 0 0 0 0 0 0 0 0 0 0 0 0
0 0 0 0 -0 -0 -0 0 0 0 0 0 0 0 0 0 0 0 0 0 0 0 0 0 0 0 0 0 0 0 0 0 0 0 0 0 0 0 0 0 0 0 0 0 0 0 0 0 0
0 0 0 0 -0 -0 -0 0 0 0 0 0 0 0 0 0 0 0 0 0 0 0 0 0 0 0 0 0 0 0 0 0 0 0 0 0 0 0 0 0 0 0 0 0 0 0 0 0 0
0 0 0 0 -0 -0 -0 -0 0 0 0 0 0 0 0 0 0 0 0 0 0 0 0 0 0 0 0 0 0 0 0 0 0 0 0 0 0 0 0 0 0 0 0 0 0 0 0 0 0
0 0 0 0 0 0 -0 -0 0 0 0 0 0 0 0 0 0 0 0 0 0 0 0 0 0 0 0 0 0 0 0 0 0 0 0 0 0 0 0 0 0 0 0 0 0 0 0 0 0
0 0 0 0 0 0 0 0 0 0 0 0 0 0 0 0 0 0 0 0 0 0 0 0 0 0 0 0 0 0 0 0 0 0 0 0 0 0 0 0 0 0 0 0 0 0 0 0 0
0 0 0 0 0 0 0 0 0 0 0 0 0 0 0 0 0 0 0 0 0 0 0 0 0 0 0 0 0 0 0 0 0 0 0 0 0 0 0 0 0 0 0 0 0 0 0 0 0
Wind_Speed
5 3 3 4 5 3 3 4 2 2 2 1 1 2 4 4 4 3 0 3 4 4 4 5 6 7 8 8 7 7 7 7 7 8 8 8 8 8 8 8 8 8 8 8 8 8 9 9 9
1 2 4 5 4 1 5 4 3 3 2 2 2 2 2 1 0 2 1 1 4 5 4 4 6 7 8 7 7 7 7 7 7 7 7 7 7 7 8 8 8 7 7 7 7 8 8 8 8
1 3 4 4 3 5 4 3 3 1 0 1 1 1 1 1 1 2 2 3 4 4 3 4 6 7 7 7 7 7 7 7 7 7 7 7 7 7 7 7 7 7 7 7 7 7 7 7 8
3 4 4 3 4 5 4 2 2 1 1 1 2 1 0 0 1 2 3 5 5 4 3 4 7 7 7 7 7 7 7 7 7 7 7 6 6 7 7 7 6 6 6 6 6 7 7 7 7
4 4 2 1 4 4 3 2 2 2 1 0 2 2 1 1 2 4 5 5 6 4 3 4 6 6 6 6 6 6 7 7 7 6 6 6 6 6 6 6 6 6 6 6 6 7 7 7 7
4 4 2 4 5 3 3 2 2 1 1 0 2 2 1 1 3 4 5 5 4 4 3 3 5 5 5 5 5 6 6 6 6 6 6 6 6 5 5 5 5 5 6 6 6 6 7 7 7
4 3 3 4 3 4 3 1 3 3 2 3 3 3 1 0 1 4 5 5 4 4 4 2 3 3 4 4 4 5 5 5 5 5 5 5 5 5 5 5 5 5 6 6 6 6 6 7 7
4 4 2 3 4 4 2 1 1 3 3 1 3 4 3 2 3 5 5 4 4 3 3 2 2 2 2 2 3 4 5 5 5 5 5 5 4 4 4 4 5 5 6 6 6 6 6 6 7
3 3 4 5 5 4 1 1 1 1 2 1 1 1 1 5 7 6 4 2 2 2 2 2 2 2 2 2 2 3 4 4 4 4 5 4 2 2 2 3 4 5 5 5 6 6 6 6 6
3 4 7 4 3 2 1 2 1 1 0 1 1 1 3 6 7 6 5 5 5 4 3 2 2 2 2 2 2 1 2 3 3 2 3 2 2 2 2 4 4 4 5 5 6 6 6 5 3
3 5 4 3 2 2 1 1 1 3 4 5 5 3 4 4 5 5 5 5 5 4 3 3 3 3 3 2 2 1 1 2 2 2 2 2 2 2 2 2 2 2 3 3 3 4 2 2 2
2 3 3 2 1 1 2 1 1 4 6 3 3 4 5 6 7 7 7 5 3 3 3 2 3 3 3 2 2 2 1 2 1 2 2 2 2 1 1 2 1 1 1 2 2 2 2 2 2
3 3 2 2 2 1 1 3 3 5 5 2 1 3 5 6 6 5 4 4 3 4 3 3 3 3 3 3 2 2 2 2 2 2 2 2 2 2 1 1 1 1 1 1 1 1 2 1 1
2 2 3 3 3 2 2 4 2 8 3 2 2 4 5 6 6 4 3 4 4 5 4 3 3 3 3 3 3 2 2 2 2 2 2 2 2 2 2 2 1 1 1 1 1 1 1 1 1
1 2 4 3 3 2 0 6 6 7 1 2 3 4 4 4 4 5 6 5 5 5 4 4 4 3 4 4 4 3 3 3 2 2 2 2 2 3 3 2 1 1 1 2 1 2 1 1 1
1 1 4 4 2 2 2 9 5 2 2 4 4 4 4 4 5 5 5 4 4 3 4 4 3 3 4 4 3 3 3 3 3 2 3 3 3 3 3 2 2 1 2 2 2 1 1 1 1
1 2 5 4 1 1 3 9 5 1 2 5 5 4 4 4 4 5 4 4 4 5 4 4 3 4 3 3 3 3 3 3 3 3 3 3 4 4 3 2 2 2 2 1 1 1 1 1 0
4 4 4 4 2 1 4 10 10 4 4 6 5 5 4 5 7 5 4 4 4 4 4 4 4 3 2 2 1 2 2 2 2 3 3 3 3 4 3 2 2 2 2 1 1 1 1 1 1
3 3 5 5 2 2 6 11 12 7 5 6 6 6 6 7 6 3 3 3 2 3 3 4 4 3 3 2 2 2 3 3 2 2 3 4 4 4 4 3 3 3 2 2 2 1 1 1 1
3 4 5 5 2 2 6 12 10 6 6 6 6 7 7 5 4 2 2 3 4 4 4 5 5 4 4 3 3 2 2 2 2 2 2 3 3 4 4 4 3 3 3 3 2 2 1 1 1
5 6 5 5 5 3 4 9 6 4 4 4 4 5 4 5 5 3 3 3 3 4 5 5 5 5 4 3 2 2 2 1 1 1 2 3 3 3 3 4 4 4 4 4 3 3 3 2 1
6 5 5 4 2 4 1 7 7 4 4 4 4 3 4 4 3 3 3 3 4 5 4 4 4 4 4 4 4 4 4 3 3 2 2 2 3 3 3 3 4 4 3 3 3 3 2 3 2
4 1 2 2 3 4 3 4 10 2 4 5 4 4 4 3 3 3 3 3 3 2 2 3 3 3 3 4 5 5 4 3 2 2 2 2 2 3 3 3 3 4 3 3 4 3 3 3 3
3 2 2 2 1 5 5 5 9 4 6 4 3 3 3 3 2 2 1 1 1 1 0 1 2 2 3 4 5 5 5 3 3 2 2 2 1 2 2 3 3 3 3 4 4 4 4 3 3
3 4 2 3 2 7 3 5 10 5 4 4 3 3 3 3 2 2 2 2 2 1 0 0 2 2 2 3 4 4 4 4 5 4 3 3 2 2 3 3 3 3 3 3 3 4 4 4 4
5 5 6 5 5 5 3 8 8 4 3 2 2 2 2 2 2 2 2 1 1 1 1 0 1 1 2 2 3 3 3 3 3 4 3 4 3 3 3 3 3 3 3 3 3 3 4 3 4
5 4 3 3 0 3 6 6 8 2 2 1 1 1 2 2 2 2 2 2 2 1 1 1 1 0 1 1 1 1 2 2 3 3 2 3 2 2 2 3 3 3 3 3 3 3 3 3 3
2 5 4 4 4 5 6 5 5 4 3 2 1 2 2 2 2 3 3 2 2 1 1 1 1 0 0 1 1 1 1 1 1 1 2 2 2 2 2 2 3 3 3 4 4 3 3 3 3
5 4 4 3 4 5 4 7 4 5 4 3 2 2 2 2 2 3 3 2 2 2 2 2 1 1 1 0 0 0 0 0 1 1 1 1 1 2 3 3 3 3 3 3 4 4 3 4 4
5 6 7 6 5 5 4 8 2 2 1 2 1 2 2 1 2 2 2 2 2 2 2 2 1 1 1 1 1 0 1 1 1 0 1 1 1 1 2 2 3 3 3 3 4 4 4 5 5
Wind_Direction
354 15 57 57 59 58 235 242 224 217 216 213 138 139 152 160 168 195 144 129 123 137 153 164 153 145 141 136 132 134 129 123 120 119 119 115 114 114 113 111 108 106 105 101 96 91 89 86 87
352 38 54 63 97 181 256 242 223 220 201 111 76 91 102 217 116 117 119 162 133 138 142 148 143 144 142 139 136 134 130 125 121 118 115 116 118 116 115 112 109 107 105 102 98 94 92 90 90
49 54 83 85 139 192 226 228 219 245 156 127 99 72 139 189 172 179 192 147 123 130 131 138 137 141 142 141 140 134 131 128 122 119 117 115 117 117 117 114 110 107 105 103 102 98 94 92 92
70 51 61 92 218 224 226 246 207 160 67 92 132 108 247 353 205 179 138 131 124 125 124 136 134 136 137 137 135 135 134 132 126 121 120 118 119 120 118 114 109 108 105 104 101 97 95 94 92
60 82 78 248 242 249 247 255 203 184 189 133 145 158 251 356 72 120 128 132 131 126 117 133 130 132 132 132 128 126 129 132 131 127 123 120 117 119 121 120 118 116 111 107 103 99 96 97 96
62 75 126 227 239 262 267 240 168 181 198 136 151 159 227 54 101 127 131 128 126 124 110 115 123 126 128 128 122 119 122 125 128 128 126 121 118 121 128 126 126 120 115 111 107 100 95 92 92
112 119 190 215 233 258 251 192 169 188 201 216 181 161 240 140 141 127 124 118 114 112 107 99 104 116 123 123 116 110 110 112 116 119 117 115 114 111 114 116 119 114 108 100 97 97 95 93 90
127 121 189 213 213 245 247 176 190 176 212 202 151 174 222 202 132 111 108 108 111 107 108 108 94 92 92 101 105 105 101 99 102 102 100 99 98 96 100 110 114 113 107 101 97 96 93 90 87
100 106 217 214 202 234 226 178 312 100 123 105 179 218 265 123 121 112 105 105 124 125 119 123 117 108 105 107 103 105 103 96 96 95 95 92 82 78 82 90 102 110 108 104 102 98 90 82 79
118 191 224 219 198 208 230 202 209 99 324 255 277 353 87 120 137 146 157 170 176 179 175 154 152 145 131 121 100 97 99 99 93 89 92 88 85 79 81 83 87 92 97 101 101 94 82 72 62
168 207 226 243 234 229 239 246 206 168 238 224 216 200 140 139 156 170 182 186 192 187 177 175 171 158 144 130 121 105 102 104 96 96 94 94 85 77 75 80 72 76 83 82 86 80 69 71 70
195 244 234 258 274 252 226 222 226 208 232 236 201 167 154 167 186 194 195 197 188 178 193 190 175 161 155 143 141 135 133 128 127 121 116 116 110 98 97 89 84 78 84 95 87 94 84 79 78
227 257 261 258 289 267 251 244 247 254 256 287 135 153 175 189 203 212 204 193 185 187 193 198 183 175 169 156 156 149 151 147 146 134 136 133 134 133 117 111 103 97 93 107 109 110 105 92 77
238 262 278 280 258 244 233 267 250 263 247 214 186 200 205 207 208 205 201 203 202 199 197 192 189 184 175 177 172 169 163 156 149 146 149 146 139 140 135 130 126 118 122 122 123 129 127 112 91
313 310 301 259 229 238 161 289 240 257 219 233 231 229 223 225 216 213 210 209 205 202 195 190 189 183 184 186 183 173 170 168 165 166 161 157 144 146 147 147 146 147 130 116 106 97 94 96 80
22 308 278 273 213 218 167 264 274 282 193 250 258 249 239 242 234 233 224 217 204 189 188 190 184 185 194 196 192 181 175 174 176 172 170 169 158 152 149 153 163 142 123 116 118 102 92 89 76
345 247 251 282 248 169 193 257 283 313 230 260 267 261 252 258 258 244 227 212 201 194 187 185 182 184 194 195 190 183 176 180 179 172 172 175 166 160 156 162 157 138 128 120 123 90 95 114 57
221 232 249 256 285 187 238 262 281 286 252 259 267 269 264 259 256 247 227 211 198 193 187 184 185 184 176 162 159 168 173 185 181 176 178 174 172 166 159 156 152 145 140 136 124 108 73 108 87
201 225 259 271 288 268 252 267 278 283 266 262 264 263 263 261 266 254 220 204 187 185 186 188 187 187 169 166 182 189 199 199 193 187 183 180 174 172 167 163 161 159 163 170 157 138 115 78 64
225 249 266 290 295 273 281 276 271 261 249 242 245 254 260 268 287 266 226 202 199 198 201 198 197 191 190 191 196 196 184 192 184 173 178 181 178 179 178 172 173 171 165 161 163 147 147 138 117
224 224 239 259 320 311 307 292 267 263 251 254 249 255 262 256 264 262 237 221 210 209 209 208 204 196 195 181 149 129 107 94 149 192 204 199 182 181 181 180 175 176 175 181 185 177 169 174 191
243 220 221 237 274 283 279 287 278 261 283 271 266 274 277 279 277 269 244 233 225 225 215 213 202 196 189 173 167 163 174 192 203 199 208 202 184 180 182 180 180 181 185 186 188 184 183 168 182
218 173 190 208 210 278 245 249 279 269 267 268 266 267 275 280 274 270 256 238 237 231 216 210 199 194 185 178 181 179 185 196 173 164 192 196 196 197 191 186 186 189 192 193 189 184 188 184 182
148 84 56 59 107 263 224 209 273 234 228 249 263 282 289 306 314 308 309 331 339 15 120 190 185 192 183 179 180 184 187 177 163 176 196 202 205 212 206 198 199 199 198 200 200 194 195 197 189
134 111 30 340 310 250 210 219 252 251 234 227 248 284 301 319 343 353 1 4 1 3 7 204 177 188 183 178 183 192 193 185 187 192 198 203 207 221 222 210 208 206 208 206 198 196 203 203 198
191 165 173 206 232 271 236 235 251 254 254 246 248 269 323 336 346 345 329 335 341 340 334 313 185 189 179 180 192 193 189 194 202 200 198 206 213 217 211 206 210 208 199 203 202 206 212 208 211
163 201 180 142 212 277 259 267 288 261 276 288 301 344 338 325 328 328 334 344 347 347 335 291 192 172 190 196 190 188 197 198 205 206 204 211 217 211 202 199 201 207 199 198 198 211 214 209 213
177 154 132 158 192 249 275 261 249 252 250 270 309 313 315 328 331 332 340 343 345 344 358 21 56 206 211 186 192 192 206 214 212 199 214 218 216 206 197 205 206 207 204 197 197 208 211 209 220
164 172 173 174 187 192 257 265 232 220 218 213 247 289 304 321 322 325 329 338 351 5 16 24 20 22 23 26 177 144 175 179 169 210 240 244 227 207 208 212 211 211 209 204 204 210 203 211 223
193 193 172 180 219 209 230 266 289 199 197 183 239 302 335 344 332 332 334 354 4 360 0 7 9 2 348 14 50 61 61 83 119 239 268 262 247 231 220 209 211 217 214 208 208 214 210 214 221